Location: Duac?
(36.9744°N, 30.6500°E)
Time: 07:00:09
(UTC+00:00)

COSMOS 2455 - Pass Details

Date: 05 August 2024
Orbit: 898 x 911 km, 67.2° (Epoch: 10 September)

Event Time Altitude Azimuth Distance (km) Brightness Sun altitude
Rises 17:55:28 0° 340° (NNW) 3,547 6.8 -10.8°
Reaches altitude 10° 17:58:12 10° 348° (NNW) 2,602 5.9 -11.2°
Maximum altitude 18:03:46 38° 55° (NE) 1,369 3.6 -12.2°
Enters shadow 18:07:50 17° 115° (ESE) 2,115 4.1 -12.9°
